Home > Weather > Leoben > Past weeks

Flag for Austria Weather for the Past 2 Weeks in Leoben, Styria, Austria

Now
47 °F

Passing clouds.


Feels Like: N/A
Forecast: 36 / 65 °F
Wind: N/A

Location: Graz-Thalerhof-Flughafen

Current Time: May 6, 2016 at 3:59:17 AM

Latest Report: May 6, 2016 at 3:00 AM


Visibility: 9 mi

Pressure: 30.19 "Hg (28.27 "Hg at 540m altitude)

Humidity: 93%

Dew Point: 45 °F

Location of LeobenLocation

Historic Weather in Leoben — Graph

°F

Leoben Temperature Yesterday

Maximum temperature yesterday: 68 °F (at 5:00 PM)
Minimum temperature yesterday: 49 °F (at 7:00 AM)
Average temperature yesterday: 56 °F

High & Low Weather Summary for the Past Weeks

 TemperatureHumidityPressure
High71 °F (Apr 22, 4:00 PM)100% (Apr 28, 4:00 AM)30.41 "Hg (Apr 28, 4:00 AM)
Low26 °F (Apr 26, 6:00 AM)26% (Apr 25, 4:00 PM)29.55 "Hg (Apr 23, 7:00 PM)
Average51 °F64%29.96 "Hg
* Reported Apr 21 2:00 AM — May 6 2:00 AM, Leoben, Weather by CustomWeather, © 2016

Note: Actual official high and low records may vary slightly from our data, if they occured in-between our weather recording intervals... More about our weather records

Advertising

Leoben Weather History for the Previous 24 Hours

Scroll right to see more
 ConditionsComfort  
Time TempWeatherWind HumidityBarometerVisibility
2:00 AM
Fri, May 6
48 °FOvercast.N/A87%30.19 "Hg14 mi
1:00 AM50 °FOvercast.N/A86%30.20 "Hg15 mi
12:00 AM49 °FOvercast.N/A85%30.21 "Hg17 mi
11:00 PM
Thu, May 5
51 °FPassing clouds.N/A82%30.21 "Hg25 mi
10:00 PM54 °FPassing clouds.N/A70%30.20 "Hg28 mi
9:00 PM57 °FPassing clouds.N/A64%30.18 "Hg28 mi
8:00 PM61 °FPassing clouds.3 mph55%30.15 "Hg28 mi
7:00 PM62 °FPassing clouds.N/A55%30.13 "Hg25 mi
6:00 PM64 °FPassing clouds.3 mph49%30.13 "Hg25 mi
5:00 PM68 °FPassing clouds.N/A43%30.13 "Hg22 mi
4:00 PM66 °FScattered clouds.N/A46%30.15 "Hg22 mi
3:00 PM65 °FScattered clouds.N/A49%30.16 "Hg19 mi
2:00 PM64 °FScattered clouds.N/A51%30.17 "Hg19 mi
1:00 PM62 °FPassing clouds.N/A49%30.19 "Hg16 mi
12:00 PM61 °FScattered clouds.N/A52%30.21 "Hg22 mi
11:00 AM57 °FPartly sunny.N/A60%30.23 "Hg16 mi
10:00 AM54 °FPartly sunny.N/A65%30.24 "Hg25 mi
9:00 AM51 °FOvercast.N/A69%30.24 "Hg31 mi
8:00 AM49 °FOvercast.N/A74%30.24 "Hg31 mi
7:00 AM49 °FRain showers. Overcast.N/A68%30.24 "Hg25 mi
6:00 AM50 °FLight rain. Overcast.3 mph61%30.22 "Hg31 mi
5:00 AM51 °FOvercast.3 mph54%30.21 "Hg31 mi
4:00 AM51 °FOvercast.6 mph53%30.21 "Hg31 mi
3:00 AM51 °FRain showers. Overcast.6 mph52%30.21 "Hg31 mi
Weather by CustomWeather, © 2016

See weather overviewHow to use our weather pages